Other Public Products
Issued by NWS Grand Forks, ND

Home | Current Version | Previous Version | Graphics & Text | Print | Product List | Glossary On
Versions: 1 2 3 4 5 6 7 8 9 10 11 12 13 14 15 16 17 18 19 20 21 22 23 24 25 26 27 28 29 30 31 32 33 34 35 36 37 38 39 40 41 42 43 44 45 46 47 48 49 50
000
FPUS83 KFGF 182010
OPUFGF
PRAIRIE TO PINES WEATHER ROUNDUP
NATIONAL WEATHER SERVICE EASTERN NORTH DAKOTA/GRAND FORKS ND
200 PM CST WED JAN 18 2017

 **SATELLITE DATA USED TO AUGMENT SKY COVER AT AUTOMATED STATIONS**
 *****  WEATHER ACROSS EASTERN NORTH DAKOTA  *****

CITY           SKY/WX    TMP DP  RH WIND       PRES   REMARKS
GRAND FORKS    FAIR      31  23  72 S10       29.67F WCI  22
GRAND FORKS AF FAIR      36  28  70 S9        29.66F
GRAND CITY NWS NOT AVBL
BUXTON         NOT AVBL
DEVILS LAKE    MIX PCPN  37  29  72 SW5       29.65F
FARGO          FAIR      35  26  69 S10       29.71F
WAHPETON ARPT  FAIR      34  27  75 SE5       29.74F
$$

 *****  WEATHER ACROSS CENTRAL AND WESTERN NORTH DAKOTA  *****

CITY           SKY/WX    TMP DP  RH WIND       PRES   REMARKS
JAMESTOWN      FAIR      38  28  67 SW10      29.66F
BISMARCK       FAIR      33  25  72 E3        29.68F
MINOT          FAIR      42  27  55 SW13      29.57F
MINOT AFB      FAIR      42  28  58 SW10      29.55F
GARRISON         N/A     36  28  73 CALM      29.61F
WILLISTON      FAIR      37  26  64 SW10      29.58F
DICKINSON      FAIR      39  26  59 SW17      29.61F
HETTINGER      FAIR      42  26  53 CALM      29.67F
$$

 *****  OTHER OBSERVATIONS NORTHEAST NORTH DAKOTA  *****

CITY           SKY/WX    TMP DP  RH WIND       PRES   REMARKS
WALHALLA       NOT AVBL
LANGDON        NOT AVBL
CAVALIER         N/A     36  28  75 S5        29.64S
GRAFTON        FAIR      32  28  86 SE9       29.67F WCI  24
CANDO          NOT AVBL
FORT TOTTEN      N/A     43  28  55 SW6       29.95S
ROLLA            N/A    N/A N/A N/A MISG        N/A
RUGBY            N/A     36  28  75 S8        29.61F
 ***** THE ABOVE OBSERVATIONS ARE NON NWS ARE NOT QUALITY
        CONTROLLED AND MAY MIS-REPORT RAIN FOR SNOW...
$$

 *****  OTHER OBSERVATIONS SOUTHEAST NORTH DAKOTA *****

CITY           SKY/WX    TMP DP  RH WIND       PRES   REMARKS
COOPERSTOWN    FAIR      34  28  80 SW5       29.67F
VALLEY CITY    FAIR      32  28  86 SW10      29.69F WCI  24
OAKES          NOT AVBL
GWINNER        FAIR      34  28  80 SW16      29.70F WCI  23
SHEYENNE NWR     N/A     36  24  62 SW6       29.95S
BUFFALO        NOT AVBL
WYNDMERE       NOT AVBL
 ***** THE ABOVE OBSERVATIONS ARE NON NWS ARE NOT QUALITY
       CONTROLLED AND MAY MIS-REPORT RAIN FOR SNOW...
$$

  *****  WEATHER ACROSS NORTHERN MINNESOTA  *****

CITY           SKY/WX    TMP DP  RH WIND       PRES   REMARKS
FLAG ISLAND    FAIR      27  21  80 SE9       29.68F WCI  17
WARROAD        FAIR      34  27  75 CALM      29.68F
ROSEAU         FAIR      34  27  75 S7        29.68F
HALLOCK        FAIR      28  25  86 SE15      29.65F WCI  17
THF RVR FALLS  FAIR      34  23  64 S9        29.70F
HALSTAD        NOT AVBL
FOSSTON        FAIR      36  23  60 S9        29.70F
BAUDETTE       FAIR      36  23  59 SE5       29.70F
WASKISH        PTSUNNY   39  27  60 CALM      29.71F
CROOKSTON      FAIR      28  23  80 S8        29.71S WCI  20
$$
  *****  WEATHER ACROSS CENTRAL AND WEST MINNESOTA  *****

CITY           SKY/WX    TMP DP  RH WIND       PRES   REMARKS
BEMIDJI        FAIR      40  27  60 CALM      29.71S
PARK RAPIDS    FAIR      37  25  61 S7        29.72F
WADENA         FAIR      39  25  56 S3        29.74F
DETROIT LAKES  FAIR      37  27  65 S9        29.73F
MOORHEAD       FAIR      32  25  74 S12       29.73F WCI  23
FERGUS FALLS   FAIR      36  27  69 SE7       29.78F
ELBOW LAKE     FAIR      34  27  76 E8        29.75F HAZE
MORRIS MN      FAIR      36  28  75 SE12      29.76S
STAPLES        FAIR      37  25  60 S6        29.75F
WHEATON        FAIR      41  36  81 SE10      29.76F
$$
  *****  WEATHER ELSEWHERE ACROSS MINNESOTA  *****

CITY           SKY/WX    TMP DP  RH WIND       PRES   REMARKS
DULUTH         FAIR      39  27  62 SW9       29.76S
INTRNTL FALLS  FAIR      38  24  57 VRB3      29.73F
ELY            FAIR      37  25  60 CALM      29.74S
CLOQUET        FAIR      37  25  60 S8        29.77S
BRAINERD       FAIR      36  25  64 S7        29.77F
HIBBING        FAIR      39  24  55 W7        29.75R
ALEXANDRIA     FAIR      37  26  64 SE7       29.77S
SAINT CLOUD    FAIR      37  29  72 S7        29.82R
MINNEAPOLIS    FAIR      40  30  67 SW8       29.86F
$$

  *****  WEATHER ACROSS SOUTH DAKOTA  *****

CITY           SKY/WX    TMP DP  RH WIND       PRES   REMARKS
SIOUX FALLS    FAIR      43  34  70 S7        29.82F
BROOKINGS      FAIR      40  29  64 S3        29.79F
WATERTOWN      FAIR      33  27  78 S7        29.77F
HURON          FAIR      38  27  64 SE6       29.78F
SISSETON         N/A     44  29  55 VRB5      29.71F
ABERDEEN       FAIR      29  20  69 S14       29.76F WCI  18
MITCHELL       FAIR      44  33  65 SE9       29.79F
PIERRE         FAIR      30  23  75 S6        29.73F WCI  24
MOBRIDGE       FAIR      28  20  71 S10       29.69F WCI  19
RAPID CITY     FAIR      37  24  59 CALM      29.68F
$$

  *****  SOME WEATHER IN NEARBY STATES *****

CITY           SKY/WX    TMP DP  RH WIND       PRES   REMARKS
GLASGOW MT     FAIR      37  29  72 S7        29.51F
GREAT FALLS MT FAIR      45  25  45 S15G21    29.57F
CHEYENNE WY    FAIR      55  13  18 W12       29.79F
SCOTTSBLUFF NE FAIR      50  23  34 MISG      29.78F
OMAHA NE       FAIR      48  39  71 S14       29.93F
DES MOINES IA  FAIR      47  38  71 S16       29.98F
DAVENPORT IA   PTSUNNY   36  32  85 SW14      30.06S FOG
CHICAGO IL     CLOUDY    36  32  85 SW14G20   30.06F
EAU CLAIRE WI  FAIR      38  30  73 SW12      29.88F
LA CROSSE WI   FAIR      37  30  75 S14       29.95F
$$

  *****  SOME NATIONAL WEATHER *****

CITY           SKY/WX    TMP DP  RH WIND       PRES   REMARKS
LA GUARDIA NY  CLOUDY    42  37  82 N9        29.96R
RALEIGH NC     FAIR      67  35  30 NW9G18    29.97R
ATLANTA GA     PTSUNNY   68  52  56 NW10      30.09F
NEW ORLEANS LA PTSUNNY   77  67  71 S12       30.05F
OKLAHOMA CITY  CLOUDY    54  41  61 S7        30.03F
ALBUQUERQUE NM LGT RAIN  45  35  68 SW9       30.04F
SALT LAKE CITY FAIR      30  22  72 N8        30.06F WCI  22
LOS ANGELES CA PTSUNNY   59  48  67 W7        30.14F
BOISE ID       PTSUNNY   24  21  88 SW6       29.89F FOG     WCI  17
SEATTLE WA     PTSUNNY   53  49  86 SE10      29.36F
$$

*** WEATHER ACROSS MANITOBA...SASKATCHEWAN AND ONTARIO ***
                ***ONTARIO***

CITY           SKY/WX    TMP DP  RH WIND       PRES   REMARKS
GERALDTON      MOSUNNY   34  25  69 W9        29.66R
THUNDER BAY    MOSUNNY   39  25  56 NW7       29.73R
SIOUX LOOKOUT  MOSUNNY   32  21  64 SW6       29.69S
TORONTO        CLOUDY    37  34  87 W15       29.98R
BIG TROUT LK   CLOUDY    34  30  86 W8        29.64R
PICKLE LAKE    MOSUNNY   32  23  69 W2        29.67R
DRYDEN         SUNNY     30  23  74 S5        29.69R
KENORA         PTSUNNY   30  23  74 S10       29.67F WCI  21
$$
                *** MANITOBA***

CITY           SKY/WX    TMP DP  RH WIND       PRES   REMARKS
BRANDON        CLOUDY    32  27  80 W9        29.55F WCI  24
DAUPHIN        SUNNY     36  30  80 SE6       29.48F
ISLAND LAKE    CLOUDY    30  25  80 E3        29.61F
PILOT MOUND      N/A     32  27  80 S8          N/A  WCI  25
THE PAS        CLOUDY    34  28  80 SE13      29.39F WCI  25
THOMPSON       CLOUDY    32  30  93 E3        29.53F
WINNIPEG       PTSUNNY   30  25  80 S10       29.62F WCI  21
LYNN LAKE      CLOUDY    28  28 100 SE9       29.40F FOG     WCI  20
CHURCHILL      LGT SNOW   5   3  92 N3        29.69R
GILLAM         LGT SNOW  30  28  93 E3        29.62R VSB 1
$$
                ***SASKATCHEWAN***

CITY           SKY/WX    TMP DP  RH WIND       PRES   REMARKS
ESTEVAN        MOSUNNY   37  27  65 SW20      29.51F
KINDERSLEY     PTSUNNY   37  32  81 SW14      29.28S
LLOYDMINSTER   PTSUNNY   41  32  70 W15       29.19R
PRINCE ALBERT  NOT AVBL
REGINA         PTSUNNY   37  32  81 SE9       29.43F
YORKTON        SUNNY     39  30  70 S10       29.41F   C1F1C2F2C3F3C4F4C5F5C6F6C7F7C8F8C9F9CaFaCbFbCcFcCdFdCe!


USA.gov is the U.S. government's official web portal to all federal, state and local government web resources and services.